Date String (YYYY-MM-DD hh:mm:ss) UTC,Instrument flags,absolute air pressure of the measurement (hPa),sample flow rate (lpm),inlet stack bypass flow (lpm),air temperature of the measurement (°C),ambient temperature measured by the external sensor (°C),aerosol sample conditioner tube jacket temperature (°C),OPC LED temperature (°C),internal box temperature (°C),relative humidity of the measurement (%),span deviation,mass concentration of particles derived from Lorenz-Mie calculation of OPC scattering (μg/m³),mass concentration of particles derived from Lorenz-Mie calculation of OPC scattering (μg/m³),mass concentration of particles derived from Lorenz-Mie calculation of OPC scattering (μg/m³)
DateTimeUTC,F1_M11,P_M11,Q1_M11,Q2_M11,T1_M11,T2_M11,T3_M11,T4_M11,T5_M11,U1_M11,ZSPAN_M11,X0_M11,X2_M11,X1_M11
2024-03-08 05:00:00,SystemResetWarning,0826.5,5.00,000.00,018.6,017.6,000.0,027.2,020.2,23.2,0000.0,0008.36,0005.81,0005.65
2024-03-08 05:01:00,SystemResetWarning,0826.5,5.00,000.00,018.5,017.6,000.0,027.2,020.2,23.2,0000.0,0008.29,0005.75,0005.61
2024-03-08 05:02:00,SystemResetWarning,0826.5,5.01,000.00,018.5,017.6,000.0,027.2,020.2,23.2,0000.0,0008.04,0005.73,0005.59
2024-03-08 05:03:00,SystemResetWarning,0826.6,5.01,000.00,018.5,017.6,000.0,027.1,020.2,23.2,0000.0,0007.82,0005.69,0005.56
2024-03-08 05:04:00,SystemResetWarning,0826.6,4.99,000.00,018.5,017.6,000.0,027.1,020.1,23.2,0000.0,0007.80,0005.67,0005.54
2024-03-08 05:05:00,SystemResetWarning,0826.6,4.99,000.00,018.4,017.5,000.0,027.1,020.1,23.3,0000.0,0007.78,0005.65,0005.52
2024-03-08 05:06:00,SystemResetWarning,0826.6,5.00,000.00,018.4,017.5,000.0,027.1,020.1,23.3,0000.0,0007.73,0005.62,0005.51
2024-03-08 05:07:00,SystemResetWarning,0826.6,5.00,000.00,018.4,017.5,000.0,027.1,020.1,23.3,0000.0,0007.76,0005.63,0005.51
2024-03-08 05:08:00,SystemResetWarning,0826.6,5.00,000.00,018.4,017.5,000.0,027.1,020.1,23.3,0000.0,0007.64,0005.62,0005.51
2024-03-08 05:09:00,SystemResetWarning,0826.6,5.00,000.00,018.4,017.6,000.0,027.1,020.1,23.2,0000.0,0007.62,0005.62,0005.51
2024-03-08 05:10:00,SystemResetWarning,0826.6,5.01,000.00,018.5,018.2,000.0,027.2,020.6,23.1,0000.0,0007.66,0005.64,0005.53
2024-03-08 05:11:00,SystemResetWarning,0826.6,5.00,000.00,018.7,019.0,000.0,027.3,021.0,22.7,0000.0,0007.66,0005.66,0005.55
2024-03-08 05:12:00,SystemResetWarning,0826.6,4.99,000.00,018.9,019.0,000.0,027.2,021.0,22.6,0000.0,0007.65,0005.69,0005.59
2024-03-08 05:13:00,SystemResetWarning,0826.6,5.00,000.00,018.9,018.8,000.0,027.2,020.9,22.5,0000.0,0007.72,0005.74,0005.62
2024-03-08 05:14:00,SystemResetWarning,0826.6,5.00,000.00,018.8,018.6,000.0,027.2,020.7,22.5,0000.0,0007.82,0005.80,0005.66
2024-03-08 05:15:00,SystemResetWarning,0826.6,5.01,000.00,018.8,018.4,000.0,027.2,020.7,22.5,0000.0,0007.88,0005.85,0005.70
2024-03-08 05:16:00,SystemResetWarning,0826.6,5.00,000.00,018.8,018.3,000.0,027.2,020.6,22.6,0000.0,0007.88,0005.89,0005.74
2024-03-08 05:17:00,SystemResetWarning,0826.6,5.00,000.00,018.8,018.2,000.0,027.2,020.5,22.6,0000.0,0007.90,0005.93,0005.77
2024-03-08 05:18:00,SystemResetWarning,0826.6,4.99,000.00,018.8,018.1,000.0,027.2,020.5,22.6,0000.0,0007.91,0005.95,0005.79
2024-03-08 05:19:00,SystemResetWarning,0826.7,5.00,000.00,018.7,018.0,000.0,027.2,020.4,22.6,0000.0,0007.92,0005.98,0005.82
2024-03-08 05:20:00,SystemResetWarning,0826.8,5.00,000.00,018.7,017.9,000.0,027.2,020.4,22.6,0000.0,0007.96,0006.01,0005.85
2024-03-08 05:21:00,SystemResetWarning,0826.8,5.00,000.00,018.7,017.8,000.0,027.2,020.3,22.6,0000.0,0007.95,0006.03,0005.85
2024-03-08 05:22:00,SystemResetWarning,0826.8,5.01,000.00,018.6,017.8,000.0,027.2,020.3,22.6,0000.0,0007.96,0006.04,0005.86
2024-03-08 05:23:00,SystemResetWarning,0826.8,5.00,000.00,018.6,017.7,000.0,027.2,020.3,22.7,0000.0,0007.97,0006.04,0005.85
2024-03-08 05:24:00,SystemResetWarning,0826.8,5.00,000.00,018.6,017.7,000.0,027.2,020.2,22.7,0000.0,0007.87,0005.99,0005.83
2024-03-08 05:25:00,SystemResetWarning,0826.8,5.01,000.00,018.6,017.7,000.0,027.2,020.2,22.6,0000.0,0007.85,0005.97,0005.80
2024-03-08 05:26:00,SystemResetWarning,0826.8,5.00,000.00,018.5,017.6,000.0,027.2,020.2,22.6,0000.0,0007.81,0005.93,0005.76
2024-03-08 05:27:00,SystemResetWarning,0826.8,5.00,000.00,018.5,017.6,000.0,027.2,020.2,22.6,0000.0,0007.75,0005.89,0005.74
2024-03-08 05:28:00,SystemResetWarning,0826.8,4.99,000.00,018.5,017.5,000.0,027.1,020.1,22.6,0000.0,0007.73,0005.87,0005.72
2024-03-08 05:29:00,SystemResetWarning,0826.8,5.00,000.00,018.4,017.5,000.0,027.1,020.1,22.6,0000.0,0007.73,0005.87,0005.71
2024-03-08 05:30:00,SystemResetWarning,0826.8,5.01,000.00,018.4,017.7,000.0,027.2,020.2,22.6,0000.0,0007.70,0005.85,0005.69
2024-03-08 05:31:00,SystemResetWarning,0826.8,5.01,000.00,018.6,018.5,000.0,027.3,020.7,22.4,0000.0,0007.66,0005.83,0005.67
2024-03-08 05:32:00,SystemResetWarning,0826.9,4.98,000.00,018.8,019.1,000.0,027.3,021.1,22.1,0000.0,0007.68,0005.83,0005.68
2024-03-08 05:33:00,SystemResetWarning,0826.8,4.99,000.00,018.9,018.9,000.0,027.3,021.0,22.0,0000.0,0007.64,0005.81,0005.66
2024-03-08 05:34:00,SystemResetWarning,0826.9,5.01,000.00,018.9,018.8,000.0,027.3,020.9,21.9,0000.0,0007.64,0005.81,0005.66
2024-03-08 05:35:00,SystemResetWarning,0826.9,5.01,000.00,018.9,018.6,000.0,027.3,020.7,21.9,0000.0,0007.72,0005.84,0005.69
2024-03-08 05:36:00,SystemResetWarning,0826.9,4.99,000.00,018.8,018.4,000.0,027.3,020.6,22.0,0000.0,0007.70,0005.85,0005.72
2024-03-08 05:37:00,SystemResetWarning,0826.9,4.99,000.00,018.8,018.3,000.0,027.3,020.6,22.0,0000.0,0007.77,0005.89,0005.74
2024-03-08 05:38:00,SystemResetWarning,0826.9,4.99,000.00,018.8,018.1,000.0,027.3,020.5,22.0,0000.0,0007.83,0005.91,0005.76
2024-03-08 05:39:00,SystemResetWarning,0826.9,5.01,000.00,018.8,018.0,000.0,027.3,020.4,22.0,0000.0,0007.84,0005.91,0005.76
2024-03-08 05:40:00,SystemResetWarning,0827.0,5.00,000.00,018.7,017.8,000.0,027.2,020.4,22.1,0000.0,0007.86,0005.92,0005.77
2024-03-08 05:41:00,SystemResetWarning,0827.0,5.00,000.00,018.7,017.7,000.0,027.2,020.3,22.1,0000.2,0007.87,0005.92,0005.79
2024-03-08 05:42:00,SystemResetWarning,0826.9,5.00,000.00,018.6,017.7,000.0,027.2,020.3,22.1,0001.0,0007.94,0005.94,0005.79
2024-03-08 05:43:00,SystemResetWarning,0826.9,5.01,000.00,018.6,017.6,000.0,027.2,020.2,22.2,0001.1,0007.97,0005.93,0005.78
2024-03-08 05:44:00,SystemResetWarning,0827.0,5.00,000.00,018.6,017.6,000.0,027.2,020.2,22.2,0001.0,0008.00,0005.93,0005.77
2024-03-08 05:45:00,SystemResetWarning,0827.0,4.99,000.00,018.5,017.5,000.0,027.2,020.2,22.3,0001.4,0008.01,0005.92,0005.76
2024-03-08 05:46:00,SystemResetWarning,0827.0,4.99,000.00,018.5,017.5,000.0,027.2,020.1,22.3,0001.0,0007.96,0005.88,0005.72
2024-03-08 05:47:00,SystemResetWarning,0827.0,5.01,000.00,018.5,017.5,000.0,027.2,020.1,22.4,0001.4,0008.01,0005.84,0005.69
2024-03-08 05:48:00,SystemResetWarning,0827.0,5.01,000.00,018.4,017.5,000.0,027.1,020.1,22.4,0001.4,0008.02,0005.83,0005.67
2024-03-08 05:49:00,SystemResetWarning,0827.1,5.01,000.00,018.4,017.5,000.0,027.1,020.1,22.5,0000.9,0008.08,0005.81,0005.64
2024-03-08 05:50:00,SystemResetWarning,0827.0,4.99,000.00,018.4,017.4,000.0,027.1,020.1,22.5,0001.0,0008.09,0005.80,0005.65
2024-03-08 05:51:00,SystemResetWarning,0827.1,4.99,000.00,018.4,017.4,000.0,027.1,020.1,23.2,0001.0,0008.05,0005.79,0005.65
2024-03-08 05:52:00,SystemResetWarning,0827.1,5.00,000.00,018.4,017.5,000.0,027.1,020.1,24.8,0001.3,0008.13,0005.81,0005.64
2024-03-08 05:53:00,SystemResetWarning,0827.1,5.02,000.00,018.4,018.1,000.0,027.2,020.4,23.6,0001.3,0008.12,0005.81,0005.64
2024-03-08 05:54:00,SystemResetWarning,0827.1,4.99,000.00,018.7,019.0,000.0,027.3,021.0,22.7,0000.7,0008.10,0005.81,0005.65
2024-03-08 05:55:00,SystemResetWarning,0827.1,4.99,000.00,018.8,019.1,000.0,027.3,021.1,22.3,0000.8,0008.09,0005.81,0005.66
2024-03-08 05:56:00,SystemResetWarning,0827.1,5.02,000.00,018.8,018.9,000.0,027.2,020.9,22.2,0001.1,0008.11,0005.81,0005.66
2024-03-08 05:57:00,SystemResetWarning,0827.1,5.00,000.00,018.8,018.7,000.0,027.2,020.8,22.2,0001.7,0008.18,0005.83,0005.66
2024-03-08 05:58:00,SystemResetWarning,0827.1,5.00,000.00,018.8,018.5,000.0,027.2,020.7,22.1,0001.6,0008.08,0005.81,0005.65
2024-03-08 05:59:00,SystemResetWarning,0827.1,4.99,000.00,018.8,018.4,000.0,027.2,020.6,22.1,0001.2,0008.05,0005.81,0005.65
